Tracking 28126 objects as of 2-Oct-2023
HD Live streaming from Space Station
objects crossing your sky now

STARLINK-6138

Track STARLINK-6138 now!
10-day predictions
STARLINK-6138 is classified as:


NORAD ID: 57329
Int'l Code: 2023-099B
Perigee: 565.2 km
Apogee: 567.2 km
Inclination: 43.0 °
Period: 95.8 minutes
Semi major axis: 6937 km
RCS: Unknown
Launch date: July 16, 2023
Source: United States (US)
Launch site: AIR FORCE EASTERN TEST RANGE (AFETR)
Your satellite tracking list
Your tracking list is empty




NASA's NSSDC Master Catalog

Two Line Element Set (TLE):
1 57329U 23099B   23274.74698764  .00001943  00000-0  15879-3 0  9998
2 57329  43.0031  44.8807 0001458 271.1506  88.9169 15.02549228 12989
Source of the keplerian elements: AFSPC